COSMOS 2491 DEB *, 45128

Orbit data source: Space-Track

COSMOS 2491 DEB *, 45128 is space debris in LEO originally from a launch on Wed, 25 Dec 2013 UTC launched from the Plesetsk Missile And Space Complex (PKMTR). Debris objects in space refer to the collection of defunct objects orbiting the Earth. Examples of debris include non-operational satellites, rocket bodies, and fragments generated from explosions, collisions, or faulty payload assembly.

Loading next visibility...
Identifier
45128, 2013-076AA
Orbit
LEO
Country
Flag of CISCIS
Related business
Manufacturer
TsNIIKhM
Mission
Spacecraft
Bus & Motor
Unknown
Mass
Unknown
Launch date (UTC)
2013-12-25 (12 years ago)
Launch vehicle
Unknown
Launch site
Plesetsk Missile And Space Complex (PKMTR)
Object type
Payload
Rocket body
Debris
Shape & HBR
Unknown
Radar Cross Section
Small (<0.1 m²)

Expand to show TLE details & history
Last TLE update: 3 days ago

TLE from 3 days ago
0 COSMOS 2491 DEB *
1 45128U 13076AA  25258.36532778  .00006208  00000-0  19971-2 0  9995
2 45128  81.2072 281.7017 0021056 349.2447  10.8287 14.39126682 22456
Epoch: 2025-09-15T08:46Z
TLE epoch observation values (Epoch: 2025-09-15T08:46:04.32Z)
Latitude
0.00006°
Longitude
155.61268°
Altitude
749.556 km
Speed
7.488 km/s
True Right ascension
18h 46m 48s
True Declination
0° 00' 00"
Sunlit
Object was in daylight at epoch
Visualization orbit readout
Latitude
Unknown
Longitude
Unknown
Altitude
Unknown
Speed
Unknown
Apparent Right ascension
Unknown
Apparent Declination
Unknown
Sunlit
N/A
Visualization observer readout
Local Sidereal Time
12:48:12
Azimuth
Unknown
Elevation
Unknown
Doppler factor
Unknown
Orbital elements
Apogee altitude
773.549 km
Perigee altitude
743.495 km
Semi-major axis
7,136.659 km
Eccentricity
0.00211
Inclination
81.2072°
RAAN
281.7017°
Arg. of periapsis
349.2447°
True anomaly
10.87415°
Mean anomaly
10.8287°
Eccentric anomaly
10.85141°
Mean motion
3.59999 °/min
Orbital period
100 mins
BSTAR
0.0019971
Loading maneuver chart data...
Computing Atmospheric mass density...
Loading historical data...
Loading historical data...
Loading historical data...
Loading historical data...
Loading historical data...
Loading historical data...
Loading historical data...

Documentation

Showing up to 5 results
|